Weather History for Opa Locka, FL

Change the Weather History Date:

Sunday, March 3, 2013

  Actual Average Record
Temperature  
Mean Temperature 58 °F -  
Max Temperature 64 °F 79 °F 92 °F (1972)
Min Temperature 52 °F 61 °F 32 °F (1980)
Degree Days  
Heating Degree Days 7    
Growing Degree Days 8 (Base 50)    
Moisture  
Dew Point 42 °F    
Average Humidity 58    
Maximum Humidity 77    
Minimum Humidity 41    
Precipitation  
Precipitation 0.00 in - - ()
Sea Level Pressure  
Sea Level Pressure 30.05 in    
Wind  
Wind Speed 10 mph (NW)    
Max Wind Speed 17 mph    
Max Gust Speed 24 mph    
Visibility 10 miles    
Events Rain    
Averages and records for this station are not official NWS values.
T = Trace of Precipitation, MM = Missing Value Source: NWS Daily Summary

Daily Weather History Graph

Daily Weather History Graph

Search for Another Location

Airport:

Trip Planner

Search our weather history database for the weather conditions in past years. The results will help you decide how hot, cold, wet, or windy it might be!

Date:

Astronomy

Mar. 03, 2013 Rise Set
Actual Time 6:42 AM EST 6:24 PM EST
Civil Twilight 6:19 AM EST 6:47 PM EST
Nautical Twilight 5:52 AM EST 7:13 PM EST
Astronomical Twilight 5:25 AM EST 7:40 PM EST
Moon No Moon Rise 10:34 AM EST (3/3)
Length of Visible Light 12h 27m
Length of Day
11h 41m
Waning Gibbous, 64% of the Moon is Illuminated
Mar 3
Waning Gibbous
Mar 4
Last Quarter
Mar 11
New
Mar 19
First Quarter
Mar 27
Full

Hourly Weather History & Observations

Time (EST) Temp. Dew Point Humidity Pressure Visibility Wind Dir Wind Speed Gust Speed Precip Events Conditions
12:53 AM 53.1 °F 41.0 °F 64% 30.04 in 10.0 mi NW 8.1 mph - N/A   Clear
1:53 AM 53.1 °F 41.0 °F 64% 30.01 in 10.0 mi NNW 4.6 mph - N/A   Mostly Cloudy
2:53 AM 54.0 °F 41.0 °F 62% 30.00 in 10.0 mi NNW 8.1 mph - N/A   Overcast
3:53 AM 53.1 °F 42.1 °F 66% 30.00 in 10.0 mi NNW 10.4 mph - 0.00 in Rain Light Rain
4:53 AM 52.0 °F 44.1 °F 74% 30.00 in 10.0 mi NW 6.9 mph - 0.00 in Rain Light Rain
5:53 AM 52.0 °F 45.0 °F 77% 30.01 in 10.0 mi West 5.8 mph - 0.00 in Rain Light Rain
6:53 AM 53.1 °F 44.1 °F 71% 30.02 in 10.0 mi NNW 6.9 mph - 0.00 in   Overcast
7:53 AM 54.0 °F 43.0 °F 66% 30.03 in 10.0 mi NW 8.1 mph - N/A   Mostly Cloudy
8:53 AM 57.0 °F 42.1 °F 57% 30.04 in 10.0 mi NNW 10.4 mph - N/A   Partly Cloudy
9:53 AM 60.1 °F 42.1 °F 51% 30.05 in 10.0 mi NW 12.7 mph - N/A   Clear
10:53 AM 61.0 °F 43.0 °F 52% 30.07 in 10.0 mi NNW 12.7 mph - N/A   Partly Cloudy
11:53 AM 61.0 °F 41.0 °F 48% 30.05 in 10.0 mi WNW 8.1 mph - N/A   Clear
12:53 PM 64.0 °F 41.0 °F 43% 30.02 in 10.0 mi NW 17.3 mph 23.0 mph N/A   Clear
1:53 PM 64.0 °F 39.9 °F 41% 30.02 in 10.0 mi NW 12.7 mph 24.2 mph N/A   Mostly Cloudy
2:53 PM 64.0 °F 41.0 °F 43% 30.02 in 10.0 mi West 15.0 mph 20.7 mph N/A   Mostly Cloudy
3:53 PM 63.0 °F 39.9 °F 43% 30.02 in 10.0 mi West 15.0 mph 23.0 mph N/A   Scattered Clouds
4:53 PM 64.0 °F 39.9 °F 41% 30.04 in 10.0 mi West 17.3 mph 24.2 mph N/A   Mostly Cloudy
5:53 PM 61.0 °F 39.9 °F 46% 30.06 in 10.0 mi WNW 15.0 mph 23.0 mph N/A   Scattered Clouds
6:53 PM 57.9 °F 39.9 °F 51% 30.09 in 10.0 mi West 17.3 mph 24.2 mph N/A   Scattered Clouds
7:53 PM 55.9 °F 42.1 °F 60% 30.11 in 10.0 mi WNW 10.4 mph - N/A   Clear
8:53 PM 54.0 °F 43.0 °F 66% 30.14 in 10.0 mi West 9.2 mph - N/A   Clear
9:53 PM 54.0 °F 44.1 °F 69% 30.14 in 10.0 mi NW 11.5 mph - N/A   Clear
10:53 PM 54.0 °F 43.0 °F 66% 30.15 in 10.0 mi NW 12.7 mph 20.7 mph N/A   Clear
11:53 PM 52.0 °F 41.0 °F 66% 30.16 in 10.0 mi NNW 12.7 mph - N/A   Clear